Location: Newark
(39.0622°N, 106.5590°E)
Time: 03:23:07
(UTC+00:00)

Courier 1B - Visible Passes

Search period start: 20 January 2020 00:00
Search period end: 30 January 2020 00:00
Orbit: 962 x 1209 km, 28.3° (Epoch: 19 January)

Date Brightness Start Highest point End Pass type
(mag) Time Alt. Az. Time Alt. Az. Time Alt. Az.
20 Jan 10.0 20:11:21 16° SE 20:11:21 16° SE 20:13:51 10° ESE visible
20 Jan 9.1 21:58:16 21° SW 22:02:19 33° SSE 22:09:08 10° ESE visible
21 Jan 9.1 21:08:01 29° S 21:08:34 29° SSE 21:15:05 10° ESE visible
21 Jan 9.0 22:55:12 10° WSW 23:02:10 38° S 23:09:16 10° ESE visible
22 Jan 9.7 20:17:43 20° SE 20:17:43 20° SE 20:20:54 10° ESE visible
22 Jan 8.9 22:04:37 24° SW 22:08:22 37° S 22:15:24 10° ESE visible
23 Jan 8.8 21:14:17 34° S 21:14:36 35° S 21:21:27 10° ESE visible
23 Jan 9.0 23:01:25 10° WSW 23:08:15 36° S 23:15:14 10° SE visible
24 Jan 9.5 20:23:55 24° SE 20:23:55 24° SE 20:27:26 10° ESE visible
24 Jan 8.8 22:10:49 24° SW 22:14:27 37° S 22:21:28 10° ESE visible
25 Jan 8.7 21:20:25 37° S 21:20:41 37° S 21:27:37 10° ESE visible
25 Jan 9.1 23:07:50 10° WSW 23:14:17 30° SSW 23:20:55 10° SE visible
26 Jan 9.4 20:30:01 26° SE 20:30:01 26° SE 20:33:42 10° ESE visible
26 Jan 8.9 22:16:55 22° SW 22:20:32 33° S 22:27:19 10° SE visible
27 Jan 10.3 19:39:37 10° ESE 19:39:37 10° ESE 19:39:44 10° ESE visible
27 Jan 8.7 21:26:30 35° S 21:26:46 35° S 21:33:36 10° ESE visible
27 Jan 9.4 23:14:34 10° WSW 23:20:17 23° SSW 23:26:09 10° SSE visible
28 Jan 9.3 20:36:06 26° SE 20:36:06 26° SE 20:39:47 10° ESE visible
28 Jan 9.1 22:23:01 19° SW 22:26:35 27° SSW 22:32:48 10° SE visible
29 Jan 10.3 19:45:43 11° ESE 19:45:43 11° ESE 19:45:55 10° ESE visible
29 Jan 8.8 21:32:37 30° SSW 21:32:52 30° SSW 21:39:16 10° SE visible
29 Jan 9.7 23:22:00 10° WSW 23:26:14 16° SSW 23:30:32 10° S visible
